TimeEDT,TemperatureF,Dew PointF,Humidity,Sea Level PressureIn,VisibilityMPH,Wind Direction,Wind SpeedMPH,Gust SpeedMPH,PrecipitationIn,Events,Conditions,WindDirDegrees,DateUTC
12:15 AM,52.9,50.0,90,30.10,10.0,South,8.1,-,N/A,Rain,Light Rain,170,2013-05-20 04:15:00
12:35 AM,53.1,50.0,89,30.09,10.0,South,8.1,-,N/A,Rain,Rain,170,2013-05-20 04:35:00
12:55 AM,53.2,50.0,89,30.09,10.0,South,6.9,-,N/A,,Drizzle,170,2013-05-20 04:55:00
1:15 AM,52.9,50.0,90,30.08,10.0,South,8.1,-,N/A,,Light Drizzle,170,2013-05-20 05:15:00
1:35 AM,53.1,50.0,89,30.07,10.0,South,6.9,-,N/A,Rain,Light Rain,170,2013-05-20 05:35:00
1:55 AM,53.2,50.2,89,30.06,10.0,South,10.4,-,N/A,,Light Drizzle,170,2013-05-20 05:55:00
2:15 AM,53.2,50.0,89,30.05,10.0,South,8.1,-,N/A,,Overcast,170,2013-05-20 06:15:00
2:35 AM,53.6,50.2,88,30.03,10.0,South,8.1,-,N/A,,Overcast,170,2013-05-20 06:35:00
2:55 AM,53.6,50.4,89,30.03,10.0,South,4.6,-,N/A,,Overcast,170,2013-05-20 06:55:00
3:15 AM,53.6,50.4,89,30.03,10.0,South,3.5,-,N/A,,Overcast,170,2013-05-20 07:15:00
3:35 AM,53.6,50.4,89,30.01,10.0,South,5.8,-,N/A,,Overcast,180,2013-05-20 07:35:00
3:55 AM,53.6,50.4,89,30.01,10.0,South,3.5,-,N/A,,Overcast,170,2013-05-20 07:55:00
4:15 AM,53.6,50.5,89,30.00,10.0,South,6.9,-,N/A,,Overcast,170,2013-05-20 08:15:00
4:35 AM,53.6,50.9,91,30.00,10.0,South,6.9,-,N/A,,Overcast,180,2013-05-20 08:35:00
4:55 AM,53.6,50.9,91,29.99,7.0,South,3.5,-,N/A,Rain,Rain,190,2013-05-20 08:55:00
5:15 AM,53.6,50.9,91,29.99,7.0,South,5.8,-,N/A,Rain,Heavy Rain,190,2013-05-20 09:15:00
5:35 AM,53.8,51.1,91,29.99,10.0,South,5.8,-,N/A,,Drizzle,190,2013-05-20 09:35:00
5:55 AM,54.0,51.3,91,30.00,10.0,SSW,5.8,-,N/A,,Overcast,200,2013-05-20 09:55:00
6:15 AM,54.1,51.4,91,30.00,10.0,South,5.8,-,N/A,,Overcast,190,2013-05-20 10:15:00
6:35 AM,54.5,51.6,90,30.00,5.0,South,4.6,-,N/A,Rain,Heavy Rain,190,2013-05-20 10:35:00
6:55 AM,54.5,51.6,90,30.00,4.0,South,5.8,-,N/A,Rain,Light Rain,180,2013-05-20 10:55:00
7:15 AM,54.5,51.8,91,30.00,10.0,SSW,5.8,-,N/A,Rain,Light Rain,200,2013-05-20 11:15:00
7:55 AM,54.9,52.2,91,30.01,7.0,SSW,3.5,-,N/A,Rain,Rain,200,2013-05-20 11:55:00
8:15 AM,54.9,52.2,91,30.01,7.0,SSW,3.5,-,N/A,Rain,Rain,200,2013-05-20 12:15:00
8:35 AM,55.2,52.5,91,30.01,4.0,South,3.5,-,N/A,Rain,Light Rain,180,2013-05-20 12:35:00
8:55 AM,55.4,52.7,91,30.02,7.0,Calm,Calm,-,N/A,Rain,Light Rain,0,2013-05-20 12:55:00
9:15 AM,55.9,53.2,91,30.02,5.0,SSE,4.6,-,N/A,Rain,Light Rain,160,2013-05-20 13:15:00
9:35 AM,56.3,53.6,91,30.02,10.0,Calm,Calm,-,N/A,,Drizzle,0,2013-05-20 13:35:00
9:55 AM,56.3,53.6,91,30.02,10.0,Calm,Calm,-,N/A,,Light Drizzle,0,2013-05-20 13:55:00
10:15 AM,57.0,54.3,91,30.02,5.0,Calm,Calm,-,N/A,,Drizzle,0,2013-05-20 14:15:00
10:35 AM,57.4,54.7,91,30.02,4.0,Calm,Calm,-,N/A,,Light Drizzle,0,2013-05-20 14:35:00
10:55 AM,58.1,55.4,91,30.02,2.5,Calm,Calm,-,N/A,,Overcast,0,2013-05-20 14:55:00
11:15 AM,58.5,55.8,91,30.02,2.5,Calm,Calm,-,N/A,,Overcast,0,2013-05-20 15:15:00
11:35 AM,58.3,55.6,91,30.01,1.8,Calm,Calm,-,N/A,,Overcast,0,2013-05-20 15:35:00
11:55 AM,59.0,56.5,91,30.00,4.0,Calm,Calm,-,N/A,,Overcast,0,2013-05-20 15:55:00
12:15 PM,61.7,57.7,87,30.00,10.0,West,4.6,-,N/A,,Overcast,280,2013-05-20 16:15:00
12:35 PM,60.8,55.9,84,30.01,10.0,NNW,5.8,-,N/A,,Overcast,330,2013-05-20 16:35:00
12:55 PM,61.0,56.3,85,30.01,10.0,NW,6.9,-,N/A,,Overcast,320,2013-05-20 16:55:00
1:15 PM,62.1,56.5,82,30.01,10.0,NNW,9.2,-,N/A,,Overcast,330,2013-05-20 17:15:00
1:35 PM,62.8,57.0,81,30.01,10.0,NW,6.9,-,N/A,,Mostly Cloudy,310,2013-05-20 17:35:00
1:55 PM,63.5,56.1,77,30.00,10.0,West,5.8,-,N/A,,Mostly Cloudy,280,2013-05-20 17:55:00
2:15 PM,64.2,55.9,74,30.00,10.0,West,6.9,-,N/A,,Scattered Clouds,280,2013-05-20 18:15:00
2:35 PM,66.7,55.0,66,29.99,10.0,West,8.1,-,N/A,,Scattered Clouds,280,2013-05-20 18:35:00
2:55 PM,67.5,54.0,62,30.00,10.0,SW,4.6,-,N/A,,Mostly Cloudy,220,2013-05-20 18:55:00
3:15 PM,65.8,52.7,62,29.99,10.0,WSW,4.6,-,N/A,,Overcast,250,2013-05-20 19:15:00
3:35 PM,67.6,54.0,61,29.99,10.0,West,5.8,-,N/A,,Mostly Cloudy,260,2013-05-20 19:35:00
3:55 PM,66.2,53.6,64,29.99,10.0,West,4.6,-,N/A,,Mostly Cloudy,270,2013-05-20 19:55:00
4:15 PM,67.1,54.1,63,29.99,10.0,WSW,6.9,-,N/A,,Clear,240,2013-05-20 20:15:00
4:35 PM,66.2,54.3,65,29.99,10.0,WSW,3.5,-,N/A,,Scattered Clouds,240,2013-05-20 20:35:00
4:55 PM,68.0,52.5,58,29.99,10.0,NW,4.6,-,N/A,,Clear,310,2013-05-20 20:55:00
5:15 PM,68.2,51.8,56,29.99,10.0,WNW,5.8,-,N/A,,Clear,300,2013-05-20 21:15:00
5:35 PM,68.2,51.6,55,29.99,10.0,NW,6.9,-,N/A,,Scattered Clouds,320,2013-05-20 21:35:00
5:55 PM,66.2,52.3,61,30.00,10.0,WNW,4.6,-,N/A,,Scattered Clouds,290,2013-05-20 21:55:00
6:15 PM,66.0,52.2,61,30.00,10.0,WNW,4.6,-,N/A,,Scattered Clouds,300,2013-05-20 22:15:00
6:35 PM,66.0,52.5,62,30.00,10.0,WNW,3.5,-,N/A,,Scattered Clouds,290,2013-05-20 22:35:00
6:55 PM,65.3,52.9,64,30.00,10.0,WNW,3.5,-,N/A,,Scattered Clouds,300,2013-05-20 22:55:00
7:15 PM,65.8,52.9,63,29.99,10.0,Calm,Calm,-,N/A,,Scattered Clouds,0,2013-05-20 23:15:00
7:35 PM,64.8,53.1,66,30.00,10.0,West,3.5,-,N/A,,Scattered Clouds,280,2013-05-20 23:35:00
7:55 PM,63.7,53.8,70,30.00,10.0,Calm,Calm,-,N/A,,Mostly Cloudy,0,2013-05-20 23:55:00
8:15 PM,62.2,54.7,76,30.00,10.0,North,4.6,-,N/A,,Mostly Cloudy,360,2013-05-21 00:15:00
8:35 PM,61.7,53.6,75,30.00,10.0,North,6.9,-,N/A,,Mostly Cloudy,360,2013-05-21 00:35:00
8:55 PM,60.8,53.4,77,30.00,10.0,North,4.6,-,N/A,,Scattered Clouds,360,2013-05-21 00:55:00
9:15 PM,59.2,52.9,80,30.01,10.0,North,5.8,-,N/A,,Scattered Clouds,360,2013-05-21 01:15:00
9:35 PM,59.0,52.0,78,30.01,10.0,North,5.8,-,N/A,,Scattered Clouds,10,2013-05-21 01:35:00
9:55 PM,56.8,51.4,82,30.02,10.0,Calm,Calm,-,N/A,,Mostly Cloudy,0,2013-05-21 01:55:00
10:15 PM,57.6,51.6,81,30.00,10.0,Calm,Calm,-,N/A,,Scattered Clouds,0,2013-05-21 02:15:00
10:35 PM,54.1,50.5,88,30.01,10.0,NNW,3.5,-,N/A,,Clear,340,2013-05-21 02:35:00
10:55 PM,55.9,50.9,83,30.01,10.0,SW,3.5,-,N/A,,Clear,230,2013-05-21 02:55:00
11:15 PM,54.7,51.6,89,30.01,10.0,Calm,Calm,-,N/A,,Scattered Clouds,0,2013-05-21 03:15:00
11:35 PM,52.7,50.0,91,30.02,10.0,Calm,Calm,-,N/A,,Overcast,0,2013-05-21 03:35:00
11:55 PM,54.5,51.4,89,30.02,10.0,Calm,Calm,-,N/A,,Mostly Cloudy,0,2013-05-21 03:55:00